Location: Hamburg
(53.5511°N, 9.9937°E)
Time: 08:21:32
(UTC+01:00)

ISS - Visible Passes

Search period start: 17 February 2020 00:00
Search period end: 27 February 2020 00:00
Orbit: 416 x 423 km, 51.6° (Epoch: 17 February)

Date Brightness Start Highest point End Pass type
(mag) Time Alt. Az. Time Alt. Az. Time Alt. Az.
22 Feb -0.9 06:44:52 10° S 06:47:10 17° SE 06:49:28 10° ESE visible
23 Feb -0.8 05:58:18 10° SSE 05:59:46 12° SE 06:01:14 10° ESE visible
24 Feb -2.0 06:45:22 10° SW 06:48:22 30° SSE 06:51:23 10° E visible
25 Feb -1.6 05:58:08 10° SSW 06:00:51 23° SSE 06:03:36 10° E visible
26 Feb -1.4 05:11:56 14° S 05:13:23 17° SE 05:15:41 10° ESE visible
